Dover, DE

3:50 AM EDT on July 26, 2016 (GMT -0400)
Dover Air Force Base

Weather History for KDOV - November, 2012

Change the Weather History Date:

Monday, November 19, 2012

  Actual Average Record
Temperature  
Mean Temperature 44 °F -  
Max Temperature 50 °F 58 °F 75 °F (1985)
Min Temperature 39 °F 37 °F 20 °F (2014)
Degree Days  
Heating Degree Days 20    
Moisture  
Dew Point 41 °F    
Average Humidity 83    
Maximum Humidity 93    
Minimum Humidity 72    
Precipitation  
Precipitation 0.00 in - - ()
Sea Level Pressure  
Sea Level Pressure 30.32 in    
Wind  
Wind Speed 11 mph (North)    
Max Wind Speed 16 mph    
Max Gust Speed -    
Visibility 10 miles    
Events      
Averages and records for this station are not official NWS values.
T = Trace of Precipitation, MM = Missing Value Source: NWS Daily Summary

Daily Weather History Graph

Daily Weather History Graph

Search for Another Location

Airport or City:

Trip Planner

Search our weather history database for the weather conditions in past years. The results will help you decide how hot, cold, wet, or windy it might be!

Date:

Astronomy

Nov. 19, 2012 Rise Set
Actual Time 6:49 AM EST 4:44 PM EST
Civil Twilight 6:21 AM EST 5:13 PM EST
Nautical Twilight 5:48 AM EST 5:45 PM EST
Astronomical Twilight 5:16 AM EST 6:17 PM EST
Moon 11:52 AM EST (11/19) 11:07 PM EST (11/19)
Length of Visible Light 10h 52m
Length of Day
9h 54m
Waxing Crescent, 40% of the Moon is Illuminated
Nov 19
Waxing Crescent
Nov 20
First Quarter
Nov 28
Full
Dec 6
Last Quarter
Dec 13
New

Hourly Weather History & Observations

Time (EST) Temp. Windchill Dew Point Humidity Pressure Visibility Wind Dir Wind Speed Gust Speed Precip Events Conditions
12:55 AM 40.6 °F 34.3 °F 37.9 °F 90% 30.46 in 10.0 mi North 10.4 mph - N/A   Clear
1:55 AM 40.5 °F 34.6 °F 38.1 °F 91% 30.45 in 10.0 mi North 9.2 mph - N/A   Clear
2:55 AM 39.6 °F 33.0 °F 37.4 °F 92% 30.44 in 10.0 mi North 10.4 mph - N/A   Clear
3:55 AM 40.6 °F 34.3 °F 38.1 °F 91% 30.43 in 10.0 mi North 10.4 mph - N/A   Clear
4:55 AM 40.5 °F 33.6 °F 37.9 °F 91% 30.43 in 10.0 mi North 11.5 mph - N/A   Clear
5:55 AM 41.0 °F 34.7 °F 38.5 °F 91% 30.43 in 10.0 mi North 10.4 mph - N/A   Clear
6:25 AM 41.0 °F 34.7 °F 39.2 °F 93% 30.43 in 10.0 mi North 10.4 mph - N/A   Mostly Cloudy
6:55 AM 42.1 °F 36.1 °F 39.2 °F 90% 30.44 in 10.0 mi North 10.4 mph - N/A   Overcast
7:35 AM 42.8 °F 36.2 °F 39.2 °F 87% 30.43 in 10.0 mi North 12.7 mph - N/A   Overcast
7:55 AM 42.6 °F 35.2 °F 39.4 °F 88% 30.42 in 10.0 mi North 15.0 mph - N/A   Overcast
8:49 AM 42.8 °F 36.2 °F 39.2 °F 87% 30.41 in 10.0 mi North 12.7 mph - N/A   Overcast
8:55 AM 42.4 °F 36.1 °F 39.4 °F 89% 30.41 in 10.0 mi North 11.5 mph - N/A   Overcast
9:55 AM 44.2 °F 37.6 °F 40.8 °F 88% 30.40 in 10.0 mi North 13.8 mph - N/A   Overcast
10:06 AM 44.6 °F 38.4 °F 41.0 °F 87% 30.40 in 10.0 mi North 12.7 mph - N/A   Overcast
10:55 AM 45.0 °F 38.5 °F 41.4 °F 87% 30.39 in 10.0 mi North 13.8 mph - N/A   Overcast
11:55 AM 47.1 °F - 42.3 °F 83% 30.35 in 10.0 mi North 15.0 mph - N/A   Overcast
12:08 PM 48.2 °F - 42.8 °F 82% 30.35 in 10.0 mi North 13.8 mph - N/A   Overcast
12:55 PM 48.2 °F - 41.2 °F 77% 30.33 in 10.0 mi NNW 16.1 mph - N/A   Overcast
1:10 PM 48.2 °F - 41.0 °F 76% 30.33 in 10.0 mi NNW 13.8 mph - N/A   Overcast
1:20 PM 48.2 °F - 41.0 °F 76% 30.33 in 10.0 mi North 12.7 mph - N/A   Overcast
1:55 PM 48.7 °F - 40.8 °F 74% 30.32 in 10.0 mi NNW 12.7 mph - N/A   Overcast
2:55 PM 50.2 °F - 41.4 °F 72% 30.29 in 10.0 mi North 11.5 mph - N/A   Mostly Cloudy
3:55 PM 48.7 °F - 41.0 °F 75% 30.30 in 10.0 mi NNW 10.4 mph - N/A   Scattered Clouds
4:06 PM 48.2 °F - 41.0 °F 76% 30.30 in 10.0 mi NNW 9.2 mph - N/A   Mostly Cloudy
4:34 PM 48.2 °F - 41.0 °F 76% 30.29 in 10.0 mi NNW 9.2 mph - N/A   Scattered Clouds
4:48 PM 48.2 °F - 41.0 °F 76% 30.28 in 10.0 mi NNW 8.1 mph - N/A   Mostly Cloudy
4:55 PM 48.0 °F - 41.5 °F 78% 30.28 in 10.0 mi NNW 8.1 mph - N/A   Mostly Cloudy
5:50 PM 46.4 °F 42.9 °F 41.0 °F 81% 30.28 in 10.0 mi North 6.9 mph - N/A   Overcast
5:51 PM 46.4 °F 42.4 °F 41.0 °F 81% 30.28 in 10.0 mi North 8.1 mph - N/A   Overcast
5:53 PM 46.4 °F 42.4 °F 41.0 °F 81% 30.28 in 10.0 mi North 8.1 mph - N/A   Overcast
5:55 PM 45.5 °F 40.8 °F 41.0 °F 84% 30.28 in 10.0 mi North 9.2 mph - N/A   Overcast
6:52 PM 48.2 °F - 42.8 °F 82% 30.27 in 10.0 mi North 10.4 mph - N/A   Overcast
6:55 PM 48.6 °F - 42.1 °F 78% 30.27 in 10.0 mi North 9.2 mph - N/A   Overcast
7:01 PM 48.2 °F - 42.8 °F 82% 30.27 in 10.0 mi North 10.4 mph - N/A   Overcast
7:14 PM 48.2 °F - 42.8 °F 82% 30.27 in 10.0 mi North 8.1 mph - N/A   Overcast
7:55 PM 48.6 °F - 42.1 °F 78% 30.26 in 10.0 mi North 10.4 mph - N/A   Overcast
8:00 PM 48.2 °F - 42.8 °F 82% 30.27 in 10.0 mi North 10.4 mph - N/A   Overcast
8:03 PM 48.2 °F - 42.8 °F 82% 30.26 in 10.0 mi North 11.5 mph - N/A   Overcast
8:33 PM 48.2 °F - 41.0 °F 76% 30.26 in 10.0 mi North 8.1 mph - N/A   Overcast
8:55 PM 47.8 °F - 41.4 °F 78% 30.25 in 10.0 mi North 8.1 mph - N/A   Overcast
9:48 PM 48.2 °F - 42.8 °F 82% 30.25 in 10.0 mi North 8.1 mph - N/A   Overcast
9:55 PM 47.3 °F - 41.9 °F 82% 30.25 in 10.0 mi North 9.2 mph - N/A   Overcast
9:57 PM 48.2 °F - 42.8 °F 82% 30.25 in 10.0 mi North 9.2 mph - N/A   Overcast
10:55 PM 47.1 °F - 42.1 °F 83% 30.22 in 10.0 mi North 9.2 mph - N/A   Overcast
11:38 PM 46.4 °F 42.9 °F 41.0 °F 81% 30.22 in 10.0 mi North 6.9 mph - N/A   Overcast
11:53 PM 46.4 °F 43.5 °F 42.8 °F 87% 30.22 in 10.0 mi North 5.8 mph - N/A   Overcast
11:55 PM 46.8 °F - 42.1 °F 84% 30.21 in 10.0 mi North 5.8 mph - N/A   Overcast